KB9ZI Weather Reports


time (UTC)temp
C
wind
direction
speed
KPH
gust
KPH
rain 1hr
cm
rain 24hr
cm
rain mn
cm
humidity
%
barometer
mb
20260502212941 19 221 0.0 22.5 0.00 0.00 0.00 36 1012.1
20260502212750 19 250 0.0 22.5 0.00 0.00 0.00 37 1012.2
20260502212739 19 271 0.0 22.5 0.00 0.00 0.00 37 1012.2
20260502212552 18 176 0.0 20.9 0.00 0.00 0.00 36 1012.2
20260502212547 19 265 0.0 22.5 0.00 0.00 0.00 36 1012.1
20260502212518 18 230 0.0 20.9 0.00 0.00 0.00 36 1012.2
20260502212226 18 233 0.0 20.9 0.00 0.00 0.00 36 1012.2
20260502211927 18 224 0.0 25.7 0.00 0.00 0.00 37 1012.3
20260502211751 18 214 0.0 30.6 0.00 0.00 0.00 35 1012.4
20260502211725 19 228 0.0 30.6 0.00 0.00 0.00 35 1012.4
20260502211553 18 257 0.0 30.6 0.00 0.00 0.00 39 1012.3
20260502211544 19 220 0.0 30.6 0.00 0.00 0.00 36 1012.4
20260502211512 19 292 0.0 30.6 0.00 0.00 0.00 37 1012.4
20260502211124 18 223 0.0 30.6 0.00 0.00 0.00 37 1012.3
20260502211026 18 203 0.0 29.0 0.00 0.00 0.00 37 1012.4
20260502210732 18 207 0.0 29.0 0.00 0.00 0.00 36 1012.5
20260502210721 18 217 0.0 29.0 0.00 0.00 0.00 35 1012.5
20260502210528 19 226 0.0 8.0 0.00 0.00 0.00 37 1012.6
20260502210524 19 269 0.0 22.5 0.00 0.00 0.00 35 1012.5
20260502210455 19 254 0.0 8.0 0.00 0.00 0.00 36 1012.6
20260502210123 19 226 0.0 8.0 0.00 0.00 0.00 37 1012.6
20260502205906 19 227 0.0 6.4 0.00 0.00 0.00 37 1012.6
20260502205706 18 261 0.0 19.3 0.00 0.00 0.00 35 1012.6
20260502205551 18 261 0.0 19.3 0.00 0.00 0.00 35 1012.8
20260502205517 18 261 0.0 20.9 0.00 0.00 0.00 35 1012.8
20260502205511 18 261 0.0 19.3 0.00 0.00 0.00 35 1012.7
20260502205034 18 261 0.0 20.9 0.00 0.00 0.00 35 1012.8
20260502204806 18 259 0.0 20.9 0.00 0.00 0.00 35 1012.9
20260502204720 18 243 0.0 22.5 0.00 0.00 0.00 36 1012.9
20260502204607 18 203 0.0 22.5 0.00 0.00 0.00 40 1012.9
20260502204515 18 258 0.0 22.5 0.00 0.00 0.00 40 1012.9
20260502204458 18 193 0.0 22.5 0.00 0.00 0.00 36 1012.9
20260502204203 18 254 0.0 22.5 0.00 0.00 0.00 40 1012.9
20260502204006 18 269 0.0 22.5 0.00 0.00 0.00 37 1013.0
20260502203801 18 233 0.0 22.5 0.00 0.00 0.00 36 1013.1
20260502203712 18 209 0.0 25.7 0.00 0.00 0.00 36 1013.1
20260502203601 18 223 0.0 25.7 0.00 0.00 0.00 35 1013.0
20260502203508 18 231 0.0 25.7 0.00 0.00 0.00 36 1013.1
20260502203502 18 237 0.0 25.7 0.00 0.00 0.00 36 1013.1
20260502203448 18 271 0.0 25.7 0.00 0.00 0.00 36 1013.0
20260502203001 18 269 0.0 25.7 0.00 0.00 0.00 36 1013.1
20260502202801 18 228 0.0 25.7 0.00 0.00 0.00 37 1013.1
20260502202708 18 197 0.0 16.1 0.00 0.00 0.00 40 1013.1
20260502202602 18 221 0.0 16.1 0.00 0.00 0.00 37 1013.2
20260502202458 18 220 0.0 22.5 0.00 0.00 0.00 39 1013.3
20260502202445 18 243 0.0 22.5 0.00 0.00 0.00 36 1013.3
20260502202139 18 220 0.0 22.5 0.00 0.00 0.00 39 1013.4
20260502202040 18 244 0.0 22.5 0.00 0.00 0.00 36 1013.4
20260502201839 18 235 0.0 22.5 0.00 0.00 0.00 38 1013.4
20260502201709 18 223 0.0 22.5 0.00 0.00 0.00 38 1013.4
20260502201530 18 200 0.0 25.7 0.00 0.00 0.00 38 1013.4
20260502201331 18 219 0.0 25.7 0.00 0.00 0.00 37 1013.5
20260502201206 18 219 0.0 25.7 0.00 0.00 0.00 37 1013.6
20260502201109 18 245 0.0 25.7 0.00 0.00 0.00 38 1013.7
20260502200906 18 255 0.0 25.7 0.00 0.00 0.00 37 1013.6
20260502200706 18 247 0.0 25.7 0.00 0.00 0.00 39 1013.7
20260502200506 18 244 0.0 17.7 0.00 0.00 0.00 35 1013.7
20260502200306 18 199 0.0 17.7 0.00 0.00 0.00 39 1013.9
20260502200216 18 254 0.0 20.9 0.00 0.00 0.00 37 1013.8
20260502200201 18 243 0.0 20.9 0.00 0.00 0.00 39 1013.8
20260502195855 17 228 0.0 22.5 0.00 0.00 0.00 38 1013.8
20260502195700 17 302 0.0 22.5 0.00 0.00 0.00 36 1014.0
20260502195632 17 217 0.0 22.5 0.00 0.00 0.00 36 1014.0
20260502195529 17 233 0.0 22.5 0.00 0.00 0.00 38 1013.9
20260502195232 17 199 0.0 22.5 0.00 0.00 0.00 37 1013.9
20260502195201 17 220 0.0 22.5 0.00 0.00 0.00 39 1014.0
20260502195031 17 202 0.0 22.5 0.00 0.00 0.00 40 1014.0
20260502194835 17 213 0.0 19.3 0.00 0.00 0.00 39 1014.0
20260502194702 17 203 0.0 19.3 0.00 0.00 0.00 40 1014.0
20260502194635 17 195 0.0 16.1 0.00 0.00 0.00 40 1014.0
20260502194412 17 230 0.0 8.0 0.00 0.00 0.00 39 1014.0
20260502194221 17 262 0.0 17.7 0.00 0.00 0.00 38 1014.3
20260502194206 17 262 0.0 17.7 0.00 0.00 0.00 38 1014.2
20260502194007 17 262 0.0 20.9 0.00 0.00 0.00 38 1014.2
20260502193906 17 262 0.0 20.9 0.00 0.00 0.00 38 1014.2
20260502193700 17 262 0.0 20.9 0.00 0.00 0.00 38 1014.3
20260502193612 17 262 0.0 20.9 0.00 0.00 0.00 38 1014.2
20260502193444 17 259 0.0 20.9 0.00 0.00 0.00 37 1014.4
20260502193437 17 262 0.0 20.9 0.00 0.00 0.00 38 1014.3
20260502193411 17 247 0.0 20.9 0.00 0.00 0.00 37 1014.4
20260502193004 17 227 0.0 24.1 0.00 0.00 0.00 39 1014.3
20260502192758 17 289 0.0 25.7 0.00 0.00 0.00 39 1014.4
20260502192654 17 189 0.0 25.7 0.00 0.00 0.00 40 1014.4
20260502192557 17 230 0.0 25.7 0.00 0.00 0.00 37 1014.4
20260502192445 16 254 0.0 25.7 0.00 0.00 0.00 39 1014.5
20260502192435 17 231 0.0 25.7 0.00 0.00 0.00 42 1014.5
20260502191955 16 195 0.0 25.7 0.00 0.00 0.00 39 1014.5
20260502191755 16 230 0.0 24.1 0.00 0.00 0.00 37 1014.6
20260502191653 16 207 0.0 24.1 0.00 0.00 0.00 38 1014.7
20260502191556 16 257 0.0 24.1 0.00 0.00 0.00 38 1014.7
20260502191450 16 240 0.0 24.1 0.00 0.00 0.00 36 1015.0
20260502191439 16 233 0.0 24.1 0.00 0.00 0.00 38 1014.8
20260502191408 16 240 0.0 24.1 0.00 0.00 0.00 36 1015.0
20260502190955 16 221 0.0 11.3 0.00 0.00 0.00 41 1015.0
20260502190849 16 217 0.0 14.5 0.00 0.00 0.00 37 1014.8
20260502190655 16 227 0.0 14.5 0.00 0.00 0.00 41 1014.8
20260502190555 16 245 0.0 14.5 0.00 0.00 0.00 37 1015.1
20260502190455 15 276 0.0 17.7 0.00 0.00 0.00 39 1015.1
20260502190439 16 203 0.0 14.5 0.00 0.00 0.00 40 1015.0
20260502190408 15 276 0.0 17.7 0.00 0.00 0.00 39 1015.1
20260502185956 15 226 0.0 19.3 0.00 0.00 0.00 40 1015.1
20260502185757 15 258 0.0 19.3 0.00 0.00 0.00 38 1015.1
20260502185653 15 258 0.0 19.3 0.00 0.00 0.00 38 1015.1
20260502185555 16 250 0.0 19.3 0.00 0.00 0.00 38 1015.1
20260502185356 16 223 0.0 19.3 0.00 0.00 0.00 38 1015.1
20260502185300 16 192 0.0 19.3 0.00 0.00 0.00 39 1015.1
20260502185155 16 192 0.0 19.3 0.00 0.00 0.00 39 1015.1
20260502184955 16 255 0.0 19.3 0.00 0.00 0.00 39 1015.2
20260502184755 16 248 0.0 19.3 0.00 0.00 0.00 42 1015.3
20260502184654 16 248 0.0 25.7 0.00 0.00 0.00 42 1015.3
20260502184555 16 221 0.0 25.7 0.00 0.00 0.00 41 1015.3
20260502184355 15 235 0.0 25.7 0.00 0.00 0.00 41 1015.3
20260502184157 15 254 0.0 25.7 0.00 0.00 0.00 39 1015.4
20260502183957 15 219 0.0 25.7 0.00 0.00 0.00 39 1015.5
20260502183755 15 244 0.0 25.7 0.00 0.00 0.00 39 1015.6
20260502183703 16 199 0.0 25.7 0.00 0.00 0.00 40 1015.5
20260502183653 16 220 0.0 25.7 0.00 0.00 0.00 37 1015.6
20260502183355 16 202 0.0 20.9 0.00 0.00 0.00 40 1015.7
20260502183157 15 259 0.0 17.7 0.00 0.00 0.00 39 1015.6
20260502182956 15 259 0.0 17.7 0.00 0.00 0.00 39 1015.7
20260502182732 15 233 0.0 19.3 0.00 0.00 0.00 40 1015.7
20260502182653 15 220 0.0 19.3 0.00 0.00 0.00 40 1015.7
20260502182517 15 175 0.0 24.1 0.00 0.00 0.00 40 1015.7
20260502182415 15 226 0.0 24.1 0.00 0.00 0.00 39 1015.8
20260502182155 15 219 0.0 24.1 0.00 0.00 0.00 40 1015.8
20260502182110 15 248 0.0 24.1 0.00 0.00 0.00 39 1015.8
20260502181911 15 233 0.0 24.1 0.00 0.00 0.00 39 1015.9
20260502181709 15 185 0.0 24.1 0.00 0.00 0.00 40 1015.8
20260502181655 15 224 0.0 24.1 0.00 0.00 0.00 42 1015.8
20260502181509 15 228 0.0 17.7 0.00 0.00 0.00 40 1015.8
20260502181308 15 271 0.0 17.7 0.00 0.00 0.00 41 1015.9
20260502181155 15 262 0.0 17.7 0.00 0.00 0.00 39 1016.0
20260502181110 15 251 0.0 17.7 0.00 0.00 0.00 39 1015.9
20260502180905 15 182 0.0 17.7 0.00 0.00 0.00 39 1016.0
20260502180811 15 279 0.0 17.7 0.00 0.00 0.00 42 1016.0
20260502180656 15 279 0.0 17.7 0.00 0.00 0.00 42 1016.0
20260502180456 15 289 0.0 17.7 0.00 0.00 0.00 42 1016.0
20260502180256 15 185 0.0 19.3 0.00 0.00 0.00 38 1016.1
20260502180150 15 216 0.0 19.3 0.00 0.00 0.00 39 1016.2
20260502170457 14 204 0.0 6.4 0.00 0.00 0.00 42 1017.0
20260502170131 14 265 0.0 6.4 0.00 0.00 0.00 42 1017.1
20260502164339 13 227 0.0 19.3 0.00 0.00 0.00 42 1017.3
20260502163928 13 227 0.0 19.3 0.00 0.00 0.00 43 1017.4
20260502163728 13 250 0.0 19.3 0.00 0.00 0.00 46 1017.3
20260502163625 13 255 0.0 19.3 0.00 0.00 0.00 43 1017.3
20260502163527 13 212 0.0 19.3 0.00 0.00 0.00 42 1017.4
20260502163411 13 244 0.0 16.1 0.00 0.00 0.00 42 1017.4
20260502163400 13 244 0.0 16.1 0.00 0.00 0.00 41 1017.4
20260502162928 13 227 0.0 16.1 0.00 0.00 0.00 42 1017.5
20260502162726 13 292 0.0 16.1 0.00 0.00 0.00 49 1017.5
20260502162625 13 228 0.0 16.1 0.00 0.00 0.00 45 1017.5
20260502162528 13 227 0.0 16.1 0.00 0.00 0.00 47 1017.6
20260502162428 13 228 0.0 24.1 0.00 0.00 0.00 44 1017.7
20260502162407 13 300 0.0 24.1 0.00 0.00 0.00 44 1017.6
20260502162338 13 228 0.0 24.1 0.00 0.00 0.00 44 1017.7
20260502161928 13 252 0.0 24.1 0.00 0.00 0.00 44 1017.6
20260502161726 12 223 0.0 24.1 0.00 0.00 0.00 44 1017.6
20260502161626 12 195 0.0 24.1 0.00 0.00 0.00 44 1017.7
20260502161527 12 227 0.0 24.1 0.00 0.00 0.00 43 1017.7
20260502161507 13 204 0.0 16.1 0.00 0.00 0.00 44 1017.6
20260502161427 13 230 0.0 19.3 0.00 0.00 0.00 44 1017.7
20260502161340 13 230 0.0 19.3 0.00 0.00 0.00 44 1017.7
20260502160928 13 243 0.0 19.3 0.00 0.00 0.00 44 1017.7
20260502160726 13 261 0.0 19.3 0.00 0.00 0.00 44 1017.7
20260502160627 12 247 0.0 19.3 0.00 0.00 0.00 43 1017.7
20260502160527 12 247 0.0 19.3 0.00 0.00 0.00 43 1017.8
20260502160340 12 227 0.0 25.7 0.00 0.00 0.00 46 1017.9
20260502160333 12 219 0.0 25.7 0.00 0.00 0.00 45 1017.8
20260502160258 12 299 0.0 25.7 0.00 0.00 0.00 44 1017.8
20260502152328 12 207 0.0 19.3 0.00 0.00 0.00 47 1018.1
20260502152128 12 207 0.0 19.3 0.00 0.00 0.00 47 1018.1
20260502151929 12 227 0.0 19.3 0.00 0.00 0.00 47 1018.1
20260502151920 12 248 0.0 14.5 0.00 0.00 0.00 47 1018.1
20260502151852 12 272 0.0 14.5 0.00 0.00 0.00 47 1018.1
20260502151526 12 268 0.0 14.5 0.00 0.00 0.00 48 1018.1
20260502151339 12 285 0.0 14.5 0.00 0.00 0.00 48 1018.2
20260502151229 12 252 0.0 9.7 0.00 0.00 0.00 51 1018.1
20260502151128 12 252 0.0 9.7 0.00 0.00 0.00 51 1018.1
20260502150928 12 252 0.0 9.7 0.00 0.00 0.00 51 1018.1
20260502150854 12 217 0.0 14.5 0.00 0.00 0.00 52 1018.2
20260502150840 12 268 0.0 9.7 0.00 0.00 0.00 51 1018.1
20260502150525 12 214 0.0 14.5 0.00 0.00 0.00 52 1018.2
20260502150326 12 227 0.0 14.5 0.00 0.00 0.00 53 1018.2
20260502150127 12 266 0.0 14.5 0.00 0.00 0.00 52 1018.2
20260502150104 11 264 0.0 14.5 0.00 0.00 0.00 52 1018.2
20260502140117 9 254 0.0 11.3 0.00 0.00 0.00 60 1018.6
20260502130412 6 254 0.0 6.4 0.00 0.00 0.00 69 1018.7
20260502130211 6 228 0.0 8.0 0.00 0.00 0.00 69 1018.8
20260502123812 5 281 0.0 11.3 0.00 0.00 0.00 69 1018.8
20260502123806 5 241 0.0 9.7 0.00 0.00 0.00 69 1018.7
20260502123739 5 281 0.0 11.3 0.00 0.00 0.00 69 1018.8
20260502123446 5 257 0.0 11.3 0.00 0.00 0.00 70 1018.7
20260502123305 4 258 0.0 11.3 0.00 0.00 0.00 70 1018.7
20260502123246 4 214 0.0 11.3 0.00 0.00 0.00 70 1018.7
20260502122949 4 238 0.0 11.3 0.00 0.00 0.00 70 1018.7
20260502122750 4 245 0.0 11.3 0.00 0.00 0.00 70 1018.7
20260502122547 4 230 0.0 8.0 0.00 0.00 0.00 71 1018.6
20260502122509 4 230 0.0 8.0 0.00 0.00 0.00 71 1018.6
20260502122341 4 224 0.0 8.0 0.00 0.00 0.00 70 1018.7
20260502122305 4 258 0.0 8.0 0.00 0.00 0.00 70 1018.6
20260502122244 4 224 0.0 8.0 0.00 0.00 0.00 71 1018.7
20260502121941 4 258 0.0 8.0 0.00 0.00 0.00 70 1018.6
20260502121742 4 258 0.0 8.0 0.00 0.00 0.00 70 1018.7
20260502121542 4 255 0.0 8.0 0.00 0.00 0.00 71 1018.6
20260502121508 4 250 0.0 6.4 0.00 0.00 0.00 71 1018.6
20260502121440 4 233 0.0 8.0 0.00 0.00 0.00 71 1018.6
20260502121308 3 223 0.0 8.0 0.00 0.00 0.00 71 1018.7
20260502121243 3 244 0.0 8.0 0.00 0.00 0.00 71 1018.6
20260502120933 3 223 0.0 8.0 0.00 0.00 0.00 71 1018.7
20260502120733 3 206 0.0 8.0 0.00 0.00 0.00 71 1018.6
20260502120537 3 185 0.0 8.0 0.00 0.00 0.00 71 1018.6
20260502120507 3 171 0.0 8.0 0.00 0.00 0.00 71 1018.6
20260502120335 3 207 0.0 6.4 0.00 0.00 0.00 72 1018.6
20260502120304 3 252 0.0 6.4 0.00 0.00 0.00 72 1018.6
20260502120242 3 241 0.0 6.4 0.00 0.00 0.00 72 1018.7
20260502115810 3 252 0.0 6.4 0.00 0.00 0.00 72 1018.7
20260502115511 3 230 0.0 6.4 0.00 0.00 0.00 72 1018.6
20260502115312 3 230 0.0 6.4 0.00 0.00 0.00 72 1018.6
20260502115111 3 234 0.0 3.2 0.00 0.00 0.00 72 1018.6
20260502115014 3 234 0.0 3.2 0.00 0.00 0.00 72 1018.4
20260502114911 3 234 0.0 3.2 0.00 0.00 0.00 72 1018.4
20260502114711 3 234 0.0 3.2 0.00 0.00 0.00 71 1018.6
20260502114514 3 234 0.0 8.0 0.00 0.00 0.00 72 1018.4
20260502114312 3 234 0.0 8.0 0.00 0.00 0.00 72 1018.4
20260502114112 3 234 0.0 8.0 0.00 0.00 0.00 72 1018.4
20260502114019 3 234 0.0 8.0 0.00 0.00 0.00 72 1018.4
20260502114010 3 234 0.0 8.0 0.00 0.00 0.00 72 1018.3
20260502113633 3 234 0.0 8.0 0.00 0.00 0.00 72 1018.4
20260502113511 3 238 0.0 6.4 0.00 0.00 0.00 72 1018.4
20260502113437 3 238 0.0 6.4 0.00 0.00 0.00 72 1018.4
20260502113232 3 243 0.0 4.8 0.00 0.00 0.00 72 1018.3
20260502113007 3 243 0.0 4.8 0.00 0.00 0.00 72 1018.3
20260502112835 3 243 0.0 4.8 0.00 0.00 0.00 72 1018.3
20260502112635 3 244 0.0 4.8 0.00 0.00 0.00 72 1018.3
20260502112507 3 244 0.0 3.2 0.00 0.00 0.00 72 1018.3
20260502112418 3 244 0.0 3.2 0.00 0.00 0.00 72 1018.3
20260502112308 3 244 0.0 3.2 0.00 0.00 0.00 72 1018.3
20260502112009 3 244 0.0 4.8 0.00 0.00 0.00 72 1018.3
20260502111808 3 244 0.0 4.8 0.00 0.00 0.00 72 1018.3
20260502111611 3 244 0.0 4.8 0.00 0.00 0.00 72 1018.3
20260502111511 3 244 0.0 4.8 0.00 0.00 0.00 72 1018.2
20260502111412 3 243 0.0 4.8 0.00 0.00 0.00 72 1018.3
20260502111211 3 243 0.0 6.4 0.00 0.00 0.00 71 1018.3
20260502111011 3 243 0.0 6.4 0.00 0.00 0.00 71 1018.3
20260502110811 3 243 0.0 6.4 0.00 0.00 0.00 71 1018.3
20260502110711 3 243 0.0 6.4 0.00 0.00 0.00 71 1018.4
20260502110510 3 243 0.0 6.4 0.00 0.00 0.00 71 1018.4
20260502110412 3 243 0.0 6.4 0.00 0.00 0.00 71 1018.3
20260502110302 3 243 0.0 4.8 0.00 0.00 0.00 70 1018.2
20260502110253 3 243 0.0 4.8 0.00 0.00 0.00 71 1018.3
20260502110224 3 243 0.0 4.8 0.00 0.00 0.00 70 1018.2
20260502105811 3 243 0.0 4.8 0.00 0.00 0.00 71 1018.3
20260502105611 3 243 0.0 4.8 0.00 0.00 0.00 71 1018.3
20260502105510 3 243 0.0 4.8 0.00 0.00 0.00 71 1018.3
20260502105411 3 243 0.0 4.8 0.00 0.00 0.00 71 1018.4
20260502105350 3 243 0.0 4.8 0.00 0.00 0.00 70 1018.2
20260502105257 3 243 0.0 4.8 0.00 0.00 0.00 70 1018.3
20260502105222 3 243 0.0 4.8 0.00 0.00 0.00 70 1018.3
20260502104810 3 243 0.0 4.8 0.00 0.00 0.00 70 1018.3
20260502104609 3 243 0.0 4.8 0.00 0.00 0.00 70 1018.3
20260502104508 3 243 0.0 4.8 0.00 0.00 0.00 70 1018.3
20260502104410 3 243 0.0 4.8 0.00 0.00 0.00 70 1018.3
20260502104300 3 228 0.0 4.8 0.00 0.00 0.00 70 1018.3
20260502104251 3 243 0.0 4.8 0.00 0.00 0.00 70 1018.4
20260502104222 3 228 0.0 4.8 0.00 0.00 0.00 70 1018.3
20260502103811 3 230 0.0 4.8 0.00 0.00 0.00 70 1018.4
20260502103711 3 230 0.0 4.8 0.00 0.00 0.00 70 1018.3
20260502103510 3 230 0.0 4.8 0.00 0.00 0.00 70 1018.2
20260502103411 3 230 0.0 4.8 0.00 0.00 0.00 70 1018.3
20260502103211 3 230 0.0 4.8 0.00 0.00 0.00 70 1018.3
20260502103011 3 224 0.0 4.8 0.00 0.00 0.00 69 1018.3
20260502102812 3 224 0.0 4.8 0.00 0.00 0.00 69 1018.3
20260502102611 3 224 0.0 6.4 0.00 0.00 0.00 69 1018.3
20260502102511 3 224 0.0 6.4 0.00 0.00 0.00 69 1018.3
20260502102411 3 224 0.0 6.4 0.00 0.00 0.00 69 1018.3
20260502102305 3 224 0.0 6.4 0.00 0.00 0.00 69 1018.3
20260502102247 3 224 0.0 6.4 0.00 0.00 0.00 69 1018.3
20260502101915 3 224 0.0 4.8 0.00 0.00 0.00 69 1018.3
20260502101608 3 221 0.0 6.4 0.00 0.00 0.00 68 1018.3
20260502101506 3 221 0.0 6.4 0.00 0.00 0.00 68 1018.3
20260502101358 3 221 0.0 6.4 0.00 0.00 0.00 68 1018.3
20260502101240 3 221 0.0 6.4 0.00 0.00 0.00 68 1018.3
20260502101232 3 221 0.0 6.4 0.00 0.00 0.00 68 1018.3
20260502100935 3 221 0.0 6.4 0.00 0.00 0.00 68 1018.3
20260502100704 3 221 0.0 3.2 0.00 0.00 0.00 68 1018.3
20260502100502 3 221 0.0 4.8 0.00 0.00 0.00 68 1018.3
20260502100326 3 221 0.0 4.8 0.00 0.00 0.00 68 1018.3
20260502100306 3 221 0.0 4.8 0.00 0.00 0.00 68 1018.3
20260502100244 3 221 0.0 4.8 0.00 0.00 0.00 68 1018.3
20260502091439 3 240 0.0 4.8 0.00 0.00 0.00 68 1018.2
20260502091356 3 240 0.0 4.8 0.00 0.00 0.00 68 1018.2
20260502091243 3 240 0.0 3.2 0.00 0.00 0.00 68 1018.3
20260502091227 3 240 0.0 4.8 0.00 0.00 0.00 69 1018.2
20260502091158 3 240 0.0 3.2 0.00 0.00 0.00 68 1018.2
20260502090755 3 240 0.0 3.2 0.00 0.00 0.00 67 1018.2
20260502090601 3 240 0.0 3.2 0.00 0.00 0.00 67 1018.2
20260502090439 3 240 0.0 3.2 0.00 0.00 0.00 67 1018.2
20260502090338 3 240 0.0 3.2 0.00 0.00 0.00 67 1018.2
20260502090227 4 240 0.0 3.2 0.00 0.00 0.00 65 1018.2
20260502090214 4 240 0.0 3.2 0.00 0.00 0.00 65 1018.2
20260502071516 5 247 0.0 3.2 0.00 0.00 0.00 63 1018.4
20260502071304 4 247 0.0 3.2 0.00 0.00 0.00 64 1018.6
20260502071204 4 247 0.0 3.2 0.00 0.00 0.00 64 1018.4
20260502071057 4 247 0.0 3.2 0.00 0.00 0.00 64 1018.4
20260502071033 4 247 0.0 3.2 0.00 0.00 0.00 64 1018.4
20260502070702 4 247 0.0 3.2 0.00 0.00 0.00 64 1018.4
20260502070511 4 247 0.0 3.2 0.00 0.00 0.00 64 1018.4
20260502070307 4 247 0.0 3.2 0.00 0.00 0.00 65 1018.6
20260502070055 4 247 0.0 3.2 0.00 0.00 0.00 65 1018.6
20260502065848 4 247 0.0 3.2 0.00 0.00 0.00 65 1018.6
20260502065730 4 247 0.0 3.2 0.00 0.00 0.00 66 1018.4
20260502065647 4 247 0.0 3.2 0.00 0.00 0.00 66 1018.6
20260502065449 4 247 0.0 3.2 0.00 0.00 0.00 67 1018.6
20260502065249 4 247 0.0 3.2 0.00 0.00 0.00 67 1018.6
20260502065232 4 247 0.0 3.2 0.00 0.00 0.00 68 1018.6
20260502065048 3 247 0.0 3.2 0.00 0.00 0.00 68 1018.6
20260502064843 4 247 0.0 3.2 0.00 0.00 0.00 70 1018.6
20260502064733 4 247 0.0 3.2 0.00 0.00 0.00 69 1018.6
20260502064646 4 247 0.0 3.2 0.00 0.00 0.00 69 1018.7
20260502064545 4 247 0.0 3.2 0.00 0.00 0.00 68 1018.7
20260502064230 4 247 0.0 0.0 0.00 0.00 0.00 68 1018.6
20260502064037 3 247 0.0 0.0 0.00 0.00 0.00 68 1018.7
20260502063836 4 247 0.0 0.0 0.00 0.00 0.00 68 1018.7
20260502063728 4 247 0.0 0.0 0.00 0.00 0.00 68 1018.7
20260502063637 4 247 0.0 0.0 0.00 0.00 0.00 68 1018.8
20260502063435 4 247 0.0 0.0 0.00 0.00 0.00 68 1018.7
20260502063224 4 247 0.0 0.0 0.00 0.00 0.00 68 1018.7
20260502063030 4 247 0.0 0.0 0.00 0.00 0.00 68 1018.7
20260502062928 3 247 0.0 0.0 0.00 0.00 0.00 68 1018.8
20260502062716 3 247 0.0 0.0 0.00 0.00 0.00 69 1018.7
20260502062631 3 247 0.0 0.0 0.00 0.00 0.00 69 1018.7
20260502062439 3 247 0.0 0.0 0.00 0.00 0.00 72 1018.7
20260502062209 3 247 0.0 0.0 0.00 0.00 0.00 72 1018.7
20260502062035 3 247 0.0 0.0 0.00 0.00 0.00 72 1018.7
20260502061834 3 247 0.0 0.0 0.00 0.00 0.00 72 1018.7
20260502061709 3 247 0.0 0.0 0.00 0.00 0.00 72 1018.7
20260502061628 3 247 0.0 0.0 0.00 0.00 0.00 72 1018.8
20260502061429 3 247 0.0 0.0 0.00 0.00 0.00 72 1018.8
20260502061209 3 247 0.0 0.0 0.00 0.00 0.00 73 1018.7
20260502061028 3 247 0.0 0.0 0.00 0.00 0.00 73 1018.7
20260502060827 3 247 0.0 0.0 0.00 0.00 0.00 73 1018.8
20260502060722 3 247 0.0 0.0 0.00 0.00 0.00 73 1018.7
20260502060708 3 247 0.0 0.0 0.00 0.00 0.00 73 1018.7
20260502060428 3 247 0.0 0.0 0.00 0.00 0.00 74 1018.8
20260502060207 3 247 0.0 0.0 0.00 0.00 0.00 74 1018.7
20260502060020 3 247 0.0 0.0 0.00 0.00 0.00 74 1018.8
20260502055817 3 247 0.0 0.0 0.00 0.00 0.00 73 1018.8
20260502055706 3 247 0.0 0.0 0.00 0.00 0.00 73 1018.8
20260502055617 3 247 0.0 0.0 0.00 0.00 0.00 73 1018.8
20260502055418 3 247 0.0 0.0 0.00 0.00 0.00 73 1018.8
20260502055205 3 247 0.0 0.0 0.00 0.00 0.00 72 1018.7
20260502055110 3 247 0.0 0.0 0.00 0.00 0.00 72 1018.7
20260502054814 3 247 0.0 0.0 0.00 0.00 0.00 72 1018.7
20260502054707 3 247 0.0 0.0 0.00 0.00 0.00 72 1018.7
20260502054614 3 247 0.0 0.0 0.00 0.00 0.00 72 1018.7
20260502054506 3 247 0.0 0.0 0.00 0.00 0.00 71 1018.8
20260502054449 3 247 0.0 0.0 0.00 0.00 0.00 72 1018.7
20260502054418 3 247 0.0 0.0 0.00 0.00 0.00 71 1018.8
20260502054010 3 247 0.0 0.0 0.00 0.00 0.00 71 1018.7
20260502053810 3 247 0.0 0.0 0.00 0.00 0.00 71 1018.8
20260502053702 3 247 0.0 0.0 0.00 0.00 0.00 71 1018.9
20260502053610 3 247 0.0 0.0 0.00 0.00 0.00 71 1018.9
20260502053509 3 247 0.0 0.0 0.00 0.00 0.00 71 1018.8
20260502053203 3 247 0.0 0.0 0.00 0.00 0.00 70 1018.7
20260502053010 4 247 0.0 0.0 0.00 0.00 0.00 70 1018.8
20260502052810 4 247 0.0 0.0 0.00 0.00 0.00 70 1018.7
20260502052707 4 247 0.0 0.0 0.00 0.00 0.00 70 1018.7
20260502052703 4 247 0.0 0.0 0.00 0.00 0.00 70 1018.7
20260502052408 4 247 0.0 0.0 0.00 0.00 0.00 70 1018.7
20260502052203 4 247 0.0 0.0 0.00 0.00 0.00 70 1018.7
20260502052006 4 247 0.0 0.0 0.00 0.00 0.00 69 1018.7
20260502051806 4 247 0.0 0.0 0.00 0.00 0.00 68 1018.8
20260502051703 4 247 0.0 0.0 0.00 0.00 0.00 68 1018.9
20260502051607 4 247 0.0 0.0 0.00 0.00 0.00 68 1018.8
20260502051409 4 247 0.0 0.0 0.00 0.00 0.00 67 1018.8
20260502051207 4 247 0.0 0.0 0.00 0.00 0.00 67 1018.7
20260502051036 4 247 0.0 0.0 0.00 0.00 0.00 67 1018.8
20260502050735 4 247 0.0 0.0 0.00 0.00 0.00 67 1018.8
20260502050630 4 247 0.0 0.0 0.00 0.00 0.00 67 1018.7
20260502050534 4 247 0.0 0.0 0.00 0.00 0.00 67 1018.7
20260502050334 4 247 0.0 0.0 0.00 0.00 0.00 67 1018.8
20260502050136 4 247 0.0 0.0 0.00 0.00 0.00 66 1018.7
20260502045935 4 247 0.0 0.0 0.00 0.00 0.00 66 1018.7
20260502045735 4 247 0.0 0.0 0.00 0.00 0.00 66 1018.7
20260502045634 4 247 0.0 0.0 0.00 0.00 0.00 66 1018.6
20260502045535 4 247 0.0 0.0 0.00 0.00 0.00 66 1018.6
20260502045455 4 247 0.0 0.0 0.00 0.00 0.00 66 1018.7
20260502045408 4 247 0.0 0.0 0.00 0.00 0.00 66 1018.7
20260502045326 4 247 0.0 0.0 0.00 0.00 0.00 66 1018.7
20260502044913 4 247 0.0 0.0 0.00 0.00 0.00 66 1018.7
20260502044714 4 247 0.0 0.0 0.00 0.00 0.00 67 1018.7
20260502044619 4 247 0.0 0.0 0.00 0.00 0.00 68 1018.6
20260502044612 4 247 0.0 0.0 0.00 0.00 0.00 67 1018.7
20260502044407 4 247 0.0 0.0 0.00 0.00 0.00 69 1018.7
20260502044355 4 247 0.0 0.0 0.00 0.00 0.00 69 1018.6
20260502044324 4 247 0.0 0.0 0.00 0.00 0.00 69 1018.7
20260502043913 4 247 0.0 0.0 0.00 0.00 0.00 68 1018.7
20260502043715 5 247 0.0 0.0 0.00 0.00 0.00 68 1018.7
20260502043613 5 247 0.0 0.0 0.00 0.00 0.00 68 1018.7
20260502043513 4 247 0.0 0.0 0.00 0.00 0.00 68 1018.7
20260502043408 5 247 0.0 0.0 0.00 0.00 0.00 66 1018.4
20260502043355 5 247 0.0 0.0 0.00 0.00 0.00 67 1018.6
20260502043324 5 247 0.0 0.0 0.00 0.00 0.00 66 1018.4
20260502043016 5 247 0.0 0.0 0.00 0.00 0.00 65 1018.6
20260502042714 5 247 0.0 0.0 0.00 0.00 0.00 64 1018.6
20260502042613 5 247 0.0 0.0 0.00 0.00 0.00 64 1018.6
20260502042513 5 247 0.0 0.0 0.00 0.00 0.00 64 1018.6
20260502042313 5 247 0.0 0.0 0.00 0.00 0.00 64 1018.6
20260502042114 5 247 0.0 0.0 0.00 0.00 0.00 64 1018.6
20260502041913 5 247 0.0 0.0 0.00 0.00 0.00 64 1018.6
20260502041713 5 247 0.0 0.0 0.00 0.00 0.00 64 1018.6
20260502041612 5 247 0.0 0.0 0.00 0.00 0.00 64 1018.7
20260502041513 5 247 0.0 0.0 0.00 0.00 0.00 63 1018.4
20260502041414 5 247 0.0 0.0 0.00 0.00 0.00 63 1018.6
20260502041111 5 247 0.0 0.0 0.00 0.00 0.00 64 1018.6
20260502040907 5 247 0.0 0.0 0.00 0.00 0.00 65 1018.7
20260502040705 5 247 0.0 0.0 0.00 0.00 0.00 65 1018.6
20260502040611 5 247 0.0 0.0 0.00 0.00 0.00 66 1018.6
20260502040601 5 247 0.0 0.0 0.00 0.00 0.00 66 1018.6
20260502040305 5 247 0.0 1.6 0.00 0.00 0.00 67 1018.7
20260502040109 5 247 0.0 1.6 0.00 0.00 0.00 67 1018.7
20260502040044 5 247 0.0 1.6 0.00 0.00 0.00 67 1018.7
20260502035845 5 247 0.0 1.6 0.00 0.00 0.00 68 1018.7
20260502035640 5 247 0.0 1.6 0.00 0.00 0.00 67 1018.7
20260502035608 5 247 0.0 1.6 0.00 0.00 0.00 68 1018.7
20260502035436 5 247 0.0 1.6 0.00 0.00 0.00 67 1018.7
20260502035237 5 247 0.0 1.6 0.00 0.00 0.00 67 1018.6
20260502035109 5 247 0.0 1.6 0.00 0.00 0.00 66 1018.6
20260502035037 5 247 0.0 1.6 0.00 0.00 0.00 66 1018.6
20260502034937 5 247 0.0 1.6 0.00 0.00 0.00 64 1018.6
20260502034612 5 247 0.0 1.6 0.00 0.00 0.00 62 1018.6
20260502034431 5 247 0.0 1.6 0.00 0.00 0.00 62 1018.7
20260502034233 5 247 0.0 1.6 0.00 0.00 0.00 62 1018.6
20260502034111 5 247 0.0 1.6 0.00 0.00 0.00 62 1018.7
20260502034032 5 247 0.0 1.6 0.00 0.00 0.00 62 1018.8
20260502033833 5 247 0.0 1.6 0.00 0.00 0.00 62 1018.6
20260502033611 5 247 0.0 1.6 0.00 0.00 0.00 63 1018.7
20260502033412 5 247 0.0 1.6 0.00 0.00 0.00 64 1018.8
20260502033211 5 247 0.0 1.6 0.00 0.00 0.00 65 1018.8
20260502033110 5 247 0.0 1.6 0.00 0.00 0.00 65 1018.8
20260502033011 5 247 0.0 1.6 0.00 0.00 0.00 64 1018.8
20260502032811 5 247 0.0 1.6 0.00 0.00 0.00 64 1018.8
20260502032610 6 247 0.0 1.6 0.00 0.00 0.00 64 1018.8
20260502032413 6 247 0.0 1.6 0.00 0.00 0.00 65 1018.8
20260502032314 6 247 0.0 1.6 0.00 0.00 0.00 65 1018.8
20260502032111 6 247 0.0 1.6 0.00 0.00 0.00 65 1018.8
20260502032013 6 247 0.0 1.6 0.00 0.00 0.00 65 1018.8
20260502031814 6 247 0.0 1.6 0.00 0.00 0.00 65 1018.8
20260502031613 6 247 0.0 1.6 0.00 0.00 0.00 65 1018.8
20260502031413 6 247 0.0 1.6 0.00 0.00 0.00 65 1018.8
20260502031214 6 247 0.0 1.6 0.00 0.00 0.00 64 1018.8
20260502031112 6 247 0.0 1.6 0.00 0.00 0.00 63 1018.8
20260502031015 6 247 0.0 1.6 0.00 0.00 0.00 63 1018.8
20260502030814 6 247 0.0 1.6 0.00 0.00 0.00 64 1018.7
20260502030719 6 247 0.0 1.6 0.00 0.00 0.00 65 1018.7
20260502030613 6 247 0.0 1.6 0.00 0.00 0.00 65 1018.7
20260502030413 6 247 0.0 1.6 0.00 0.00 0.00 65 1018.7
20260502030214 6 247 0.0 1.6 0.00 0.00 0.00 65 1018.8
20260502030117 6 247 0.0 1.6 0.00 0.00 0.00 64 1018.8
20260502030013 6 247 0.0 0.0 0.00 0.00 0.00 65 1018.8
20260502025814 6 247 0.0 1.6 0.00 0.00 0.00 65 1018.8
20260502025613 6 247 0.0 1.6 0.00 0.00 0.00 65 1018.8
20260502025413 6 247 0.0 1.6 0.00 0.00 0.00 65 1018.7
20260502025213 6 247 0.0 1.6 0.00 0.00 0.00 64 1018.7
20260502025123 6 247 0.0 1.6 0.00 0.00 0.00 65 1018.7
20260502025112 6 247 0.0 1.6 0.00 0.00 0.00 64 1018.7
20260502024908 6 247 0.0 0.0 0.00 0.00 0.00 65 1018.7
20260502024856 6 247 0.0 1.6 0.00 0.00 0.00 65 1018.6
20260502024826 6 247 0.0 0.0 0.00 0.00 0.00 65 1018.7
20260502024413 6 247 0.0 0.0 0.00 0.00 0.00 63 1018.7
20260502024214 6 247 0.0 0.0 0.00 0.00 0.00 63 1018.7
20260502024112 6 247 0.0 0.0 0.00 0.00 0.00 63 1018.7
20260502024014 6 247 0.0 0.0 0.00 0.00 0.00 63 1018.7
20260502023955 6 247 0.0 0.0 0.00 0.00 0.00 63 1018.7
20260502023902 6 247 0.0 0.0 0.00 0.00 0.00 61 1018.6
20260502023826 6 247 0.0 0.0 0.00 0.00 0.00 61 1018.6
20260502023415 6 247 0.0 0.0 0.00 0.00 0.00 61 1018.6
20260502023213 6 247 0.0 0.0 0.00 0.00 0.00 60 1018.6
20260502023112 6 247 0.0 0.0 0.00 0.00 0.00 60 1018.7
20260502023015 6 247 0.0 0.0 0.00 0.00 0.00 60 1018.6
20260502022907 6 247 0.0 1.6 0.00 0.00 0.00 59 1018.7
20260502022856 6 247 0.0 0.0 0.00 0.00 0.00 59 1018.7
20260502022828 6 247 0.0 1.6 0.00 0.00 0.00 59 1018.7
20260502022414 6 247 0.0 1.6 0.00 0.00 0.00 58 1018.6
20260502022315 7 247 0.0 1.6 0.00 0.00 0.00 58 1018.6
20260502022112 7 247 0.0 1.6 0.00 0.00 0.00 58 1018.7
20260502022013 7 247 0.0 1.6 0.00 0.00 0.00 58 1018.6
20260502021907 7 247 0.0 1.6 0.00 0.00 0.00 58 1018.6
20260502021858 7 247 0.0 1.6 0.00 0.00 0.00 58 1018.4
20260502021828 7 247 0.0 1.6 0.00 0.00 0.00 58 1018.6
20260502021413 7 247 0.0 0.0 0.00 0.00 0.00 56 1018.4
20260502021213 7 247 0.0 0.0 0.00 0.00 0.00 55 1018.6
20260502021113 7 247 0.0 0.0 0.00 0.00 0.00 56 1018.4
20260502021013 7 247 0.0 0.0 0.00 0.00 0.00 56 1018.4
20260502020815 8 247 0.0 0.0 0.00 0.00 0.00 53 1018.6
20260502020613 8 247 0.0 1.6 0.00 0.00 0.00 53 1018.3
20260502020413 8 247 0.0 1.6 0.00 0.00 0.00 53 1018.4
20260502020214 8 247 0.0 1.6 0.00 0.00 0.00 52 1018.3
20260502020118 8 247 0.0 1.6 0.00 0.00 0.00 51 1018.3
20260502020014 8 247 0.0 1.6 0.00 0.00 0.00 51 1018.4
20260502015913 8 247 0.0 1.6 0.00 0.00 0.00 51 1018.3
20260502015614 8 247 0.0 1.6 0.00 0.00 0.00 50 1018.3
20260502015413 8 247 0.0 1.6 0.00 0.00 0.00 50 1018.3
20260502015213 8 247 0.0 1.6 0.00 0.00 0.00 48 1018.3
20260502015112 8 247 0.0 1.6 0.00 0.00 0.00 48 1018.3
20260502015013 8 247 0.0 1.6 0.00 0.00 0.00 48 1018.2
20260502014814 8 247 0.0 1.6 0.00 0.00 0.00 48 1018.2
20260502014613 8 247 0.0 1.6 0.00 0.00 0.00 49 1018.2
20260502014413 9 247 0.0 0.0 0.00 0.00 0.00 47 1018.2
20260502014314 9 247 0.0 0.0 0.00 0.00 0.00 47 1018.1
20260502014112 9 247 0.0 0.0 0.00 0.00 0.00 46 1018.1
20260502014013 9 247 0.0 1.6 0.00 0.00 0.00 44 1018.2
20260502013815 9 247 0.0 1.6 0.00 0.00 0.00 44 1018.1
20260502013613 9 247 0.0 1.6 0.00 0.00 0.00 44 1018.1
20260502013424 9 247 0.0 1.6 0.00 0.00 0.00 44 1018.1
20260502013215 9 247 0.0 1.6 0.00 0.00 0.00 44 1018.1
20260502013112 9 247 0.0 1.6 0.00 0.00 0.00 43 1018.1
20260502013013 9 247 0.0 1.6 0.00 0.00 0.00 44 1018.0
20260502012815 10 247 0.0 1.6 0.00 0.00 0.00 44 1018.0
20260502012613 10 247 0.0 3.2 0.00 0.00 0.00 44 1018.0
20260502012413 10 247 0.0 3.2 0.00 0.00 0.00 44 1018.0
20260502012214 10 247 0.0 3.2 0.00 0.00 0.00 44 1018.0
20260502012112 10 247 0.0 3.2 0.00 0.00 0.00 43 1018.1
20260502012013 10 247 0.0 3.2 0.00 0.00 0.00 43 1018.1
20260502011914 10 247 0.0 3.2 0.00 0.00 0.00 43 1018.0
20260502011614 10 247 0.0 3.2 0.00 0.00 0.00 43 1018.0
20260502011413 10 247 0.0 3.2 0.00 0.00 0.00 43 1018.0
20260502011213 10 247 0.0 3.2 0.00 0.00 0.00 44 1018.0
20260502011112 10 247 0.0 4.8 0.00 0.00 0.00 44 1018.0
20260502011013 10 247 0.0 4.8 0.00 0.00 0.00 44 1018.0
20260502010814 10 247 0.0 4.8 0.00 0.00 0.00 41 1018.0
20260502010603 10 247 0.0 4.8 0.00 0.00 0.00 41 1018.0
20260502010412 10 247 0.0 4.8 0.00 0.00 0.00 40 1018.0
20260502010314 10 247 0.0 4.8 0.00 0.00 0.00 41 1018.0
20260502010012 11 247 0.0 4.8 0.00 0.00 0.00 40 1017.8
20260502005814 11 247 0.0 4.8 0.00 0.00 0.00 40 1017.9
20260502005614 11 247 0.0 4.8 0.00 0.00 0.00 40 1018.0
20260502005602 11 247 0.0 4.8 0.00 0.00 0.00 40 1017.9
20260502005413 11 247 0.0 4.8 0.00 0.00 0.00 40 1017.9
20260502005214 11 245 0.0 4.8 0.00 0.00 0.00 43 1018.0
20260502005103 11 247 0.0 4.8 0.00 0.00 0.00 41 1017.9
20260502005013 11 247 0.0 4.8 0.00 0.00 0.00 40 1017.9
20260502004855 11 245 0.0 4.8 0.00 0.00 0.00 41 1017.9
20260502004841 11 245 0.0 4.8 0.00 0.00 0.00 40 1018.0
20260502004413 11 245 0.0 4.8 0.00 0.00 0.00 40 1017.9
20260502004213 11 245 0.0 4.8 0.00 0.00 0.00 40 1018.0
20260502004049 11 245 0.0 4.8 0.00 0.00 0.00 40 1017.8
20260502004014 11 245 0.0 8.0 0.00 0.00 0.00 40 1017.8
20260502003940 11 245 0.0 8.0 0.00 0.00 0.00 44 1018.0
20260502003851 11 245 0.0 8.0 0.00 0.00 0.00 41 1018.0
20260502003811 11 245 0.0 8.0 0.00 0.00 0.00 41 1018.0
20260502003410 11 245 0.0 8.0 0.00 0.00 0.00 41 1018.0
20260502003209 11 245 0.0 8.0 0.00 0.00 0.00 40 1017.9
20260502003046 11 245 0.0 8.0 0.00 0.00 0.00 41 1018.0
20260502003010 11 213 0.0 6.4 0.00 0.00 0.00 39 1018.0
20260502002855 11 243 0.0 4.8 0.00 0.00 0.00 41 1018.0
20260502002836 11 213 0.0 6.4 0.00 0.00 0.00 40 1017.9
20260502002807 11 237 0.0 4.8 0.00 0.00 0.00 41 1018.0
20260502002410 11 243 0.0 6.4 0.00 0.00 0.00 41 1018.0
20260502002308 11 243 0.0 6.4 0.00 0.00 0.00 40 1018.0
20260502002047 11 243 0.0 6.4 0.00 0.00 0.00 40 1018.0
20260502002010 11 243 0.0 6.4 0.00 0.00 0.00 39 1017.9
20260502001812 11 243 0.0 6.4 0.00 0.00 0.00 42 1018.0
20260502001610 11 243 0.0 6.4 0.00 0.00 0.00 40 1017.9
20260502001544 11 245 0.0 6.4 0.00 0.00 0.00 40 1017.9
20260502001410 11 244 0.0 4.8 0.00 0.00 0.00 41 1017.8
20260502001212 11 244 0.0 4.8 0.00 0.00 0.00 42 1017.9
20260502001046 11 250 0.0 3.2 0.00 0.00 0.00 43 1017.9
20260502001013 11 250 0.0 3.2 0.00 0.00 0.00 43 1017.9
20260502000810 11 250 0.0 3.2 0.00 0.00 0.00 43 1017.9
20260502000604 11 250 0.0 3.2 0.00 0.00 0.00 43 1017.8
20260502000532 11 250 0.0 3.2 0.00 0.00 0.00 42 1017.8
20260502000403 11 250 0.0 3.2 0.00 0.00 0.00 40 1017.9
20260502000312 11 250 0.0 4.8 0.00 0.00 0.00 39 1017.9
20260502000031 12 59 0.0 4.8 0.00 0.00 0.00 40 1017.9
20260502000008 12 59 0.0 4.8 0.00 0.00 0.00 40 1017.8
20260501235807 12 59 0.0 4.8 0.00 0.00 0.00 40 1017.8
20260501235558 12 59 0.0 4.8 0.00 0.00 0.00 40 1017.7
20260501235530 12 59 0.0 4.8 0.00 0.00 0.00 40 1017.8
20260501235357 12 59 0.0 4.8 0.00 0.00 0.00 40 1017.8
20260501235155 12 59 0.0 4.8 0.00 0.00 0.00 40 1017.7
20260501235003 12 59 0.0 6.4 0.00 0.00 0.00 39 1017.8
20260501234957 12 59 0.0 6.4 0.00 0.00 0.00 39 1017.8
20260501234755 12 58 0.0 6.4 0.00 0.00 0.00 41 1017.8
20260501234656 12 51 0.0 6.4 0.00 0.00 0.00 41 1017.8
20260501234502 12 51 0.0 6.4 0.00 0.00 0.00 40 1017.8
20260501234356 12 51 0.0 6.4 0.00 0.00 0.00 40 1017.8
20260501234156 12 51 0.0 6.4 0.00 0.00 0.00 38 1017.9
20260501234005 12 69 0.0 4.8 0.00 0.00 0.00 42 1017.8
20260501233952 12 71 0.0 4.8 0.00 0.00 0.00 42 1017.9
20260501233746 11 48 0.0 4.8 0.00 0.00 0.00 42 1017.9
20260501233544 11 48 0.0 4.8 0.00 0.00 0.00 41 1017.9
20260501233502 11 48 0.0 4.8 0.00 0.00 0.00 41 1017.9
20260501233342 11 48 0.0 4.8 0.00 0.00 0.00 41 1017.9
20260501233138 11 48 0.0 6.4 0.00 0.00 0.00 41 1017.9
20260501233032 11 48 0.0 6.4 0.00 0.00 0.00 41 1017.8
20260501233001 11 48 0.0 6.4 0.00 0.00 0.00 41 1017.8
20260501232809 12 48 0.0 11.3 0.00 0.00 0.00 38 1017.8
20260501232755 11 48 0.0 6.4 0.00 0.00 0.00 39 1017.9
20260501232726 11 48 0.0 11.3 0.00 0.00 0.00 38 1017.8
20260501232335 12 41 0.0 11.3 0.00 0.00 0.00 38 1017.9
20260501232131 12 240 0.0 11.3 0.00 0.00 0.00 39 1017.9
20260501232032 12 248 0.0 11.3 0.00 0.00 0.00 38 1017.8
20260501232002 12 248 0.0 11.3 0.00 0.00 0.00 39 1017.9
20260501231804 12 243 0.0 19.3 0.00 0.00 0.00 39 1017.8
20260501231751 12 248 0.0 19.3 0.00 0.00 0.00 37 1017.9
20260501231720 12 228 0.0 19.3 0.00 0.00 0.00 39 1017.8
20260501231326 12 243 0.0 19.3 0.00 0.00 0.00 40 1017.7
20260501231119 12 241 0.0 19.3 0.00 0.00 0.00 38 1017.8
20260501231002 12 209 0.0 19.3 0.00 0.00 0.00 38 1017.8
20260501230918 12 200 0.0 19.3 0.00 0.00 0.00 39 1017.8
20260501230805 12 245 0.0 11.3 0.00 0.00 0.00 39 1017.8
20260501230748 12 226 0.0 11.3 0.00 0.00 0.00 36 1017.9
20260501230717 12 264 0.0 11.3 0.00 0.00 0.00 39 1017.8
20260501230401 12 245 0.0 11.3 0.00 0.00 0.00 39 1017.8
20260501230106 13 248 0.0 11.3 0.00 0.00 0.00 38 1017.9
20260501225959 13 240 0.0 9.7 0.00 0.00 0.00 40 1017.9
20260501225905 13 240 0.0 9.7 0.00 0.00 0.00 38 1017.9
20260501225810 13 226 0.0 8.0 0.00 0.00 0.00 38 1017.9
20260501225749 13 254 0.0 8.0 0.00 0.00 0.00 39 1017.9
20260501225718 13 226 0.0 8.0 0.00 0.00 0.00 38 1017.9
20260501225306 13 250 0.0 8.0 0.00 0.00 0.00 41 1017.9
20260501225100 13 274 0.0 8.0 0.00 0.00 0.00 41 1017.9
20260501225000 13 68 0.0 8.0 0.00 0.00 0.00 39 1017.9
20260501224857 13 68 0.0 8.0 0.00 0.00 0.00 39 1017.8
20260501224753 13 68 0.0 8.0 0.00 0.00 0.00 40 1017.9
20260501224500 12 28 0.0 8.0 0.00 0.00 0.00 38 1017.9
20260501224300 12 28 0.0 8.0 0.00 0.00 0.00 39 1018.0
20260501224058 12 37 0.0 8.0 0.00 0.00 0.00 39 1017.9
20260501223939 12 42 0.0 8.0 0.00 0.00 0.00 38 1017.9
20260501223859 13 209 0.0 9.7 0.00 0.00 0.00 40 1017.9
20260501223656 13 209 0.0 9.7 0.00 0.00 0.00 40 1017.8
20260501223459 12 209 0.0 9.7 0.00 0.00 0.00 39 1017.7
20260501223439 12 209 0.0 9.7 0.00 0.00 0.00 39 1017.8
20260501223352 12 209 0.0 9.7 0.00 0.00 0.00 39 1017.8
20260501223055 12 62 0.0 9.7 0.00 0.00 0.00 37 1017.8
20260501222939 12 48 0.0 9.7 0.00 0.00 0.00 37 1017.9
20260501222855 13 237 0.0 8.0 0.00 0.00 0.00 38 1017.9
20260501222655 13 203 0.0 8.0 0.00 0.00 0.00 38 1018.0
20260501222455 13 254 0.0 8.0 0.00 0.00 0.00 37 1017.9
20260501222440 13 254 0.0 8.0 0.00 0.00 0.00 37 1017.8
20260501222255 13 254 0.0 8.0 0.00 0.00 0.00 38 1017.9
20260501222056 13 78 0.0 8.0 0.00 0.00 0.00 40 1017.9
20260501221939 13 79 0.0 8.0 0.00 0.00 0.00 39 1017.9
20260501221856 12 80 0.0 8.0 0.00 0.00 0.00 38 1017.9
20260501221757 12 73 0.0 8.0 0.00 0.00 0.00 37 1017.9
20260501221640 11 66 0.0 6.4 0.00 0.00 0.00 41 1018.0
20260501221636 11 61 0.0 6.4 0.00 0.00 0.00 41 1018.0
20260501221631 12 351 0.0 8.0 0.00 0.00 0.00 39 1017.9
20260501221609 12 39 0.0 8.0 0.00 0.00 0.00 38 1017.9
20260501221558 12 39 0.0 8.0 0.00 0.00 0.00 39 1017.9
20260501221538 12 25 0.0 8.0 0.00 0.00 0.00 39 1018.0
20260501221510 12 45 0.0 8.0 0.00 0.00 0.00 39 1018.0
20260501221447 12 45 0.0 8.0 0.00 0.00 0.00 43 1017.9
20260501221440 12 45 0.0 8.0 0.00 0.00 0.00 43 1017.9
20260501221411 11 102 0.0 6.4 0.00 0.00 0.00 44 1018.0
20260501221330 11 66 0.0 6.4 0.00 0.00 0.00 44 1018.0
20260501221311 11 72 0.0 6.4 0.00 0.00 0.00 42 1018.0
20260501221242 11 72 0.0 6.4 0.00 0.00 0.00 41 1017.9
20260501221218 11 72 0.0 6.4 0.00 0.00 0.00 42 1018.0
20260501221209 11 72 0.0 6.4 0.00 0.00 0.00 42 1018.0
20260501221140 11 72 0.0 6.4 0.00 0.00 0.00 42 1017.9
20260501221113 11 7 0.0 3.2 0.00 0.00 0.00 43 1018.0
20260501221059 11 7 0.0 6.4 0.00 0.00 0.00 43 1018.0
20260501221038 11 7 0.0 6.4 0.00 0.00 0.00 43 1018.0
20260501221010 11 61 0.0 6.4 0.00 0.00 0.00 43 1017.9
20260501220947 11 61 0.0 6.4 0.00 0.00 0.00 41 1017.9
20260501220938 11 61 0.0 6.4 0.00 0.00 0.00 41 1017.9
20260501220847 11 58 0.0 6.4 0.00 0.00 0.00 41 1017.9
20260501220834 11 65 0.0 6.4 0.00 0.00 0.00 41 1017.9
20260501220814 11 51 0.0 6.4 0.00 0.00 0.00 42 1017.9
20260501220749 11 41 0.0 8.0 0.00 0.00 0.00 41 1018.0
20260501220724 11 38 0.0 8.0 0.00 0.00 0.00 41 1017.9
20260501220714 11 38 0.0 8.0 0.00 0.00 0.00 41 1017.9
20260501220647 11 78 0.0 8.0 0.00 0.00 0.00 41 1017.8
20260501220554 12 78 0.0 8.0 0.00 0.00 0.00 40 1017.9
20260501213100 12 34 0.0 8.0 0.00 0.00 0.00 41 1017.9